Showing default

SEMI-1N, 66297

Orbit data source: Space-Track

SEMI-1N, 66297 is a Turkish payload satellite in LEO that was launched on Sun, 02 Nov 2025 UTC via an FALCON 9 launch vehicle from the Air Force Eastern Test Range (AFETR). Payload-class satellites include a variety of spacecraft equipped with specific instruments for various scientific and technological missions. These include communications satellites like Starlink; space stations such as the ISS; scientific satellites like the Hubble; Earth observation satellites from companies like Planet Labs, Umbra, and HawkEye 360; GPS; miniature CubeSats for education and research; and military/defense satellites.

Loading next visibility...
Identifier
66297, 2025-248E
Orbit
LEO
Country
Flag of TRTR / TURK
Related business
Manufacturer
UNKTR
Mission
Operational Commercial Communications
Bus & Motor
CUBESAT 6U?, Unknown motor
Mass
12 kg wet, 12 kg dry
Launch date (UTC)
2025-11-02 (8 months ago)
Launch vehicle
FALCON 9
Launch site
Air Force Eastern Test Range (AFETR)
Object type
Payload
Rocket body
Debris
Shape & HBR
Box, 0.1 m
Radar Cross Section
0.008 m², Medium (>0.1 m² and < 1m²)

Expand to show TLE details & history
Last TLE update: 15 hours ago

TLE from 15 hours ago
0 SEMI-1N
1 66297U 25248E   26171.20309558  .00004083  00000-0  19323-3 0  9996
2 66297  45.4047 102.0907 0009544  55.7797 304.3993 15.21014078 35016
Epoch: 2026-06-20T04:52Z
TLE epoch observation values (Epoch: 2026-06-20T04:52:27.458Z)
Latitude
0.00001°
Longitude
120.55521°
Altitude
499.119 km
Speed
7.619 km/s
True Right ascension
06h 48m 21s
True Declination
0° 00' 00"
Sunlit
Object was in daylight at epoch
Visualization orbit readout
Latitude
Unknown
Longitude
Unknown
Altitude
Unknown
Speed
Unknown
Apparent Right ascension
Unknown
Apparent Declination
Unknown
Sunlit
N/A
Visualization observer readout
Local Sidereal Time
07:18:10
Azimuth
Unknown
Elevation
Unknown
Doppler factor
Unknown
Orbital elements
Apogee altitude
510.886 km
Perigee altitude
497.749 km
Semi-major axis
6,882.454 km
Eccentricity
0.00095
Inclination
45.4047°
RAAN
102.0907°
Arg. of periapsis
55.7797°
True anomaly
304.309°
Mean anomaly
304.3993°
Eccentric anomaly
304.35416°
Mean motion
3.80127 °/min
Orbital period
94.71 mins
BSTAR
0.00019323
Loading maneuver chart data...
Computing Atmospheric mass density...
Loading historical data...
Loading historical data...
Loading historical data...
Loading historical data...
Loading historical data...
Loading historical data...
Loading historical data...

Documentation

Showing up to 5 results
|